STARLINK-1980 (47578 NORAD) Tracking and Keplerian Element Data

This shows tracking and keplerian element data for the satellite.

Feedback or suggestion? Click here.




ElementValue
Catalog47578
NameSTARLINK-1980
Epoch Orbit182
Epoch Day55.91668981
Epoch Year2021
RAAN22.5227
Inclination53.0478
Eccentricity0.0001247
Argument of Perigee65.8036
Mean Anonmoly77.3238
Mean Motion15.62748408
Decay Rate-4.05E-06
L11 47578U 21009AG 21055.91668981 -.00000405 00000-0 14145-5 0 9994
L22 47578 53.0478 22.5227 0001247 65.8036 77.3238 15.62748408 1828

Live tracking and technical data element details for STARLINK-1980 (NORAD 47578). STARLINK-1980 can be tracked NOW for your location showing map with azimuth and elevation plus other details from your city location.

Track the satellite on the map from your city or location and see movement details for azimuth, elevation, latitude, longitude, range, height, and movement on the map or in text.







IsCatalogInMostPopularTable: catalog: 47578, numindb: 1
Update: records affected: 1



GetName: 47578 STARLINK-1980

Hit Count: updated at: Thu, 25 Feb 2021 18:53:37 GMT